GAP294 RPLL-RPVI

Flight info

Callsign GAP294
Flight time 0h 47m
Altitude 29000
Route VERDE2R VERDE A461 SAJ W3 BEDER BEDER1S
Aircraft A21N/M-SDE2E3FGHIRWXY/LB1

Departure

Time 2026-04-16 03:48
Airport Ninoy Aquino International Airport (RPLL)

Arrival

Time 2026-04-16 04:36
Airport Iloilo International Airport (RPVI)
Time Latitude Longitude Altitude Speed Heading
2026-04-16 03:20 14.50852 121.01280 84 ft 0 kts 330°
2026-04-16 03:21 14.50868 121.01308 84 ft 0 kts 329°
2026-04-16 03:36 14.50865 121.01309 84 ft 2 kts 329°
2026-04-16 03:36 14.50853 121.01317 84 ft 2 kts 329°
2026-04-16 03:36 14.50840 121.01325 84 ft 2 kts 329°
2026-04-16 03:37 14.50827 121.01333 84 ft 2 kts 329°
2026-04-16 03:37 14.50814 121.01341 84 ft 2 kts 329°
2026-04-16 03:37 14.50801 121.01349 84 ft 2 kts 329°
2026-04-16 03:37 14.50791 121.01356 84 ft 0 kts 329°
2026-04-16 03:38 14.50783 121.01363 84 ft 1 kts 289°
2026-04-16 03:38 14.50782 121.01373 84 ft 0 kts 243°
2026-04-16 03:38 14.50786 121.01379 84 ft 1 kts 239°
2026-04-16 03:38 14.50787 121.01380 84 ft 0 kts 239°
2026-04-16 03:41 14.50786 121.01379 84 ft 0 kts 239°
2026-04-16 03:41 14.50780 121.01369 84 ft 2 kts 241°
2026-04-16 03:41 14.50768 121.01345 84 ft 4 kts 241°
2026-04-16 03:41 14.50737 121.01319 84 ft 6 kts 201°
2026-04-16 03:42 14.50686 121.01318 84 ft 8 kts 197°
2026-04-16 03:42 14.50643 121.01270 84 ft 10 kts 240°
2026-04-16 03:42 14.50605 121.01202 84 ft 11 kts 240°
2026-04-16 03:42 14.50560 121.01123 84 ft 13 kts 240°
2026-04-16 03:43 14.50512 121.01037 84 ft 14 kts 240°
2026-04-16 03:43 14.50460 121.00942 84 ft 15 kts 240°
2026-04-16 03:43 14.50405 121.00841 84 ft 16 kts 240°
2026-04-16 03:43 14.50345 121.00735 84 ft 17 kts 240°
2026-04-16 03:44 14.50283 121.00623 84 ft 18 kts 240°
2026-04-16 03:44 14.50219 121.00508 84 ft 18 kts 240°
2026-04-16 03:44 14.50153 121.00389 84 ft 19 kts 240°
2026-04-16 03:44 14.50089 121.00272 84 ft 18 kts 240°
2026-04-16 03:45 14.50025 121.00159 84 ft 18 kts 240°
2026-04-16 03:45 14.49962 121.00047 84 ft 18 kts 240°
2026-04-16 03:45 14.49879 120.99966 84 ft 17 kts 165°
2026-04-16 03:45 14.49803 121.00046 84 ft 16 kts 70°
2026-04-16 03:46 14.49822 121.00082 84 ft 0 kts 59°
2026-04-16 03:47 14.49845 121.00121 84 ft 28 kts 60°
2026-04-16 03:47 14.50077 121.00538 84 ft 102 kts 60°
2026-04-16 03:48 14.50536 121.01367 84 ft 163 kts 60°
2026-04-16 03:48 14.51167 121.02503 276 ft 195 kts 60°
2026-04-16 03:48 14.51821 121.03684 1143 ft 186 kts 60°
2026-04-16 03:48 14.52434 121.04802 1961 ft 181 kts 59°
2026-04-16 03:49 14.53055 121.05891 2550 ft 175 kts 58°
2026-04-16 03:49 14.53674 121.06987 2915 ft 181 kts 59°
2026-04-16 03:49 14.54125 121.08224 3290 ft 188 kts 84°
2026-04-16 03:49 14.53965 121.09555 3684 ft 194 kts 112°
2026-04-16 03:50 14.53173 121.10712 3999 ft 203 kts 133°
2026-04-16 03:50 14.52127 121.11728 4334 ft 211 kts 139°
2026-04-16 03:50 14.50858 121.12549 4611 ft 223 kts 165°
2026-04-16 03:50 14.49299 121.12596 4893 ft 232 kts 187°
2026-04-16 03:51 14.47667 121.12344 5205 ft 244 kts 190°
2026-04-16 03:51 14.45933 121.12055 5489 ft 260 kts 189°
2026-04-16 03:51 14.44092 121.11793 5806 ft 276 kts 188°
2026-04-16 03:51 14.42144 121.11561 6190 ft 289 kts 187°
2026-04-16 03:52 14.40130 121.11347 6817 ft 292 kts 187°
2026-04-16 03:52 14.38107 121.11146 7480 ft 294 kts 186°
2026-04-16 03:52 14.36098 121.10953 8094 ft 296 kts 187°
2026-04-16 03:52 14.34029 121.10760 8712 ft 299 kts 187°
2026-04-16 03:53 14.31957 121.10568 9319 ft 302 kts 187°
2026-04-16 03:53 14.29874 121.10377 9916 ft 304 kts 187°
2026-04-16 03:53 14.27757 121.10183 10425 ft 310 kts 187°
2026-04-16 03:53 14.25564 121.09980 10681 ft 325 kts 187°
2026-04-16 03:54 14.23250 121.09766 10935 ft 339 kts 187°
2026-04-16 03:54 14.20870 121.09548 11220 ft 351 kts 187°
2026-04-16 03:54 14.18428 121.09325 11706 ft 355 kts 187°
2026-04-16 03:54 14.15954 121.09102 12286 ft 357 kts 187°
2026-04-16 03:55 14.13486 121.08877 12826 ft 360 kts 187°
2026-04-16 03:55 14.10989 121.08649 13335 ft 364 kts 187°
2026-04-16 03:55 14.08456 121.08418 13842 ft 367 kts 187°
2026-04-16 03:55 14.05906 121.08186 14345 ft 370 kts 187°
2026-04-16 03:56 14.03336 121.07952 14845 ft 373 kts 186°
2026-04-16 03:56 14.00762 121.07719 15334 ft 376 kts 186°
2026-04-16 03:56 13.98128 121.07480 15824 ft 379 kts 186°
2026-04-16 03:56 13.95517 121.07243 16299 ft 382 kts 186°
2026-04-16 03:57 13.92863 121.07002 16776 ft 385 kts 186°
2026-04-16 03:57 13.90193 121.06760 17248 ft 388 kts 186°
2026-04-16 03:57 13.87503 121.06518 17708 ft 391 kts 186°
2026-04-16 03:57 13.84812 121.06276 18161 ft 393 kts 186°
2026-04-16 03:58 13.82090 121.06031 18607 ft 396 kts 185°
2026-04-16 03:58 13.79334 121.05782 19051 ft 398 kts 185°
2026-04-16 03:58 13.76566 121.05533 19486 ft 401 kts 185°
2026-04-16 03:58 13.73819 121.05285 19915 ft 403 kts 185°
2026-04-16 03:59 13.71033 121.05034 20343 ft 405 kts 185°
2026-04-16 03:59 13.68224 121.04781 20769 ft 407 kts 185°
2026-04-16 03:59 13.65410 121.04527 21181 ft 410 kts 185°
2026-04-16 03:59 13.62545 121.04270 21601 ft 412 kts 185°
2026-04-16 04:00 13.59728 121.04018 22004 ft 414 kts 185°
2026-04-16 04:00 13.56844 121.03758 22407 ft 416 kts 185°
2026-04-16 04:00 13.53978 121.03500 22800 ft 418 kts 185°
2026-04-16 04:00 13.51071 121.03417 23152 ft 420 kts 172°
2026-04-16 04:01 13.48298 121.04265 23498 ft 420 kts 154°
2026-04-16 04:01 13.45725 121.05621 23918 ft 420 kts 150°
2026-04-16 04:01 13.43166 121.07072 24277 ft 422 kts 150°
2026-04-16 04:01 13.40570 121.08521 24636 ft 423 kts 150°
2026-04-16 04:02 13.37999 121.09919 24996 ft 425 kts 151°
2026-04-16 04:02 13.35366 121.11330 25420 ft 424 kts 153°
2026-04-16 04:02 13.32793 121.12680 25967 ft 419 kts 154°
2026-04-16 04:02 13.30202 121.14017 26345 ft 419 kts 154°
2026-04-16 04:03 13.27583 121.15361 26631 ft 422 kts 154°
2026-04-16 04:03 13.24941 121.16716 26914 ft 424 kts 154°
2026-04-16 04:03 13.22326 121.18057 27194 ft 425 kts 154°
2026-04-16 04:03 13.19664 121.19420 27474 ft 427 kts 154°
2026-04-16 04:04 13.17026 121.20771 27744 ft 429 kts 154°
2026-04-16 04:04 13.14363 121.22134 28014 ft 431 kts 154°
2026-04-16 04:04 13.11692 121.23502 28285 ft 432 kts 154°
2026-04-16 04:04 13.09010 121.24875 28545 ft 434 kts 154°
2026-04-16 04:05 13.06313 121.26256 28777 ft 437 kts 154°
2026-04-16 04:05 13.03563 121.27663 28939 ft 439 kts 154°
2026-04-16 04:05 13.00853 121.29050 28950 ft 440 kts 154°
2026-04-16 04:06 12.95353 121.31863 28957 ft 442 kts 154°
2026-04-16 04:06 12.89868 121.34667 28960 ft 443 kts 154°
2026-04-16 04:07 12.84352 121.37473 28960 ft 443 kts 154°
2026-04-16 04:07 12.78843 121.40276 28726 ft 441 kts 154°
2026-04-16 04:07 12.76134 121.41657 28478 ft 439 kts 154°
2026-04-16 04:08 12.73395 121.43053 28227 ft 438 kts 154°
2026-04-16 04:08 12.70671 121.44442 27976 ft 436 kts 154°
2026-04-16 04:08 12.67975 121.45817 27726 ft 434 kts 154°
2026-04-16 04:08 12.65282 121.47190 27476 ft 433 kts 154°
2026-04-16 04:09 12.62612 121.48552 27227 ft 431 kts 154°
2026-04-16 04:09 12.59950 121.49909 26978 ft 430 kts 154°
2026-04-16 04:09 12.57279 121.51271 26727 ft 428 kts 154°
2026-04-16 04:09 12.54632 121.52621 26478 ft 427 kts 154°
2026-04-16 04:10 12.51981 121.53971 26227 ft 425 kts 154°
2026-04-16 04:10 12.49331 121.55321 25976 ft 424 kts 154°
2026-04-16 04:10 12.46700 121.56661 25726 ft 422 kts 154°
2026-04-16 04:10 12.44090 121.57991 25476 ft 421 kts 154°
2026-04-16 04:11 12.41479 121.59320 25226 ft 419 kts 154°
2026-04-16 04:11 12.38895 121.60635 24978 ft 418 kts 154°
2026-04-16 04:11 12.36308 121.61951 24728 ft 416 kts 154°
2026-04-16 04:11 12.33743 121.63257 24480 ft 415 kts 154°
2026-04-16 04:12 12.31154 121.64574 24228 ft 413 kts 154°
2026-04-16 04:12 12.28607 121.65867 23979 ft 412 kts 155°
2026-04-16 04:12 12.26034 121.67171 23727 ft 410 kts 155°
2026-04-16 04:12 12.23491 121.68460 23477 ft 409 kts 155°
2026-04-16 04:13 12.20968 121.69741 23228 ft 408 kts 155°
2026-04-16 04:13 12.18417 121.71036 22975 ft 406 kts 155°
2026-04-16 04:13 12.15920 121.72305 22727 ft 405 kts 155°
2026-04-16 04:13 12.13459 121.73556 22482 ft 403 kts 155°
2026-04-16 04:14 12.10980 121.74816 22234 ft 402 kts 155°
2026-04-16 04:14 12.08451 121.76101 21981 ft 401 kts 155°
2026-04-16 04:14 12.05975 121.77359 21731 ft 399 kts 155°
2026-04-16 04:14 12.03482 121.78625 21480 ft 398 kts 155°
2026-04-16 04:15 12.01005 121.79884 21229 ft 396 kts 155°
2026-04-16 04:15 11.98534 121.81139 20977 ft 395 kts 155°
2026-04-16 04:15 11.96100 121.82375 20729 ft 394 kts 155°
2026-04-16 04:15 11.93653 121.83617 20479 ft 392 kts 155°
2026-04-16 04:16 11.91206 121.84860 20227 ft 391 kts 155°
2026-04-16 04:16 11.88744 121.86108 19974 ft 390 kts 155°
2026-04-16 04:16 11.86173 121.87405 19708 ft 388 kts 155°
2026-04-16 04:16 11.83754 121.88625 19457 ft 387 kts 155°
2026-04-16 04:17 11.81351 121.89840 19207 ft 386 kts 155°
2026-04-16 04:17 11.78948 121.91056 18956 ft 384 kts 155°
2026-04-16 04:17 11.76568 121.92261 18706 ft 383 kts 155°
2026-04-16 04:17 11.74192 121.93465 18456 ft 382 kts 155°
2026-04-16 04:18 11.71828 121.94663 18207 ft 380 kts 155°
2026-04-16 04:18 11.69467 121.95860 17957 ft 379 kts 155°
2026-04-16 04:18 11.67116 121.97050 17707 ft 378 kts 155°
2026-04-16 04:18 11.64758 121.98244 17454 ft 377 kts 155°
2026-04-16 04:19 11.62424 121.99426 17204 ft 375 kts 155°
2026-04-16 04:19 11.60098 122.00605 16955 ft 374 kts 155°
2026-04-16 04:19 11.57765 122.01785 16703 ft 373 kts 155°
2026-04-16 04:19 11.55451 122.02957 16453 ft 371 kts 155°
2026-04-16 04:20 11.53171 122.04111 16206 ft 370 kts 155°
2026-04-16 04:20 11.50846 122.05288 15953 ft 369 kts 155°
2026-04-16 04:20 11.48572 122.06438 15705 ft 368 kts 155°
2026-04-16 04:20 11.46294 122.07591 15455 ft 367 kts 155°
2026-04-16 04:21 11.44017 122.08742 15207 ft 365 kts 155°
2026-04-16 04:21 11.41749 122.09888 14963 ft 364 kts 155°
2026-04-16 04:21 11.39492 122.11029 14723 ft 363 kts 155°
2026-04-16 04:21 11.37220 122.12177 14416 ft 362 kts 155°
2026-04-16 04:22 11.34997 122.13300 14042 ft 360 kts 155°
2026-04-16 04:22 11.32776 122.14423 13636 ft 357 kts 155°
2026-04-16 04:22 11.30561 122.15543 13217 ft 355 kts 155°
2026-04-16 04:22 11.28345 122.16663 12790 ft 352 kts 155°
2026-04-16 04:23 11.26185 122.17754 12370 ft 350 kts 155°
2026-04-16 04:23 11.24015 122.18851 11945 ft 348 kts 155°
2026-04-16 04:23 11.21851 122.19943 11519 ft 346 kts 155°
2026-04-16 04:23 11.19714 122.21022 11096 ft 344 kts 155°
2026-04-16 04:24 11.17583 122.22098 10673 ft 342 kts 155°
2026-04-16 04:24 11.15445 122.23178 10252 ft 341 kts 155°
2026-04-16 04:24 11.13361 122.24231 10107 ft 328 kts 155°
2026-04-16 04:24 11.11367 122.25238 10039 ft 314 kts 155°
2026-04-16 04:25 11.09485 122.26211 9954 ft 302 kts 150°
2026-04-16 04:25 11.07951 122.27640 9669 ft 298 kts 122°
2026-04-16 04:25 11.07266 122.29578 9308 ft 296 kts 94°
2026-04-16 04:25 11.07503 122.31614 8962 ft 290 kts 68°
2026-04-16 04:26 11.08279 122.33493 8653 ft 286 kts 63°
2026-04-16 04:26 11.09114 122.35333 8333 ft 284 kts 63°
2026-04-16 04:26 11.09919 122.37153 8016 ft 282 kts 64°
2026-04-16 04:26 11.10699 122.38974 7699 ft 280 kts 64°
2026-04-16 04:27 11.11456 122.40781 7382 ft 278 kts 65°
2026-04-16 04:27 11.12200 122.42573 7069 ft 276 kts 65°
2026-04-16 04:27 11.12951 122.44386 6751 ft 274 kts 65°
2026-04-16 04:27 11.13686 122.46163 6443 ft 271 kts 65°
2026-04-16 04:28 11.14408 122.47909 6134 ft 269 kts 65°
2026-04-16 04:28 11.15137 122.49671 5821 ft 267 kts 65°
2026-04-16 04:28 11.15829 122.51421 5496 ft 267 kts 71°
2026-04-16 04:28 11.15989 122.53280 5168 ft 269 kts 96°
2026-04-16 04:29 11.15466 122.55093 4865 ft 268 kts 109°
2026-04-16 04:29 11.14772 122.56864 4551 ft 267 kts 110°
2026-04-16 04:29 11.13983 122.58530 4404 ft 258 kts 127°
2026-04-16 04:29 11.12577 122.59578 4314 ft 255 kts 162°
2026-04-16 04:30 11.10822 122.59650 4022 ft 251 kts 195°
2026-04-16 04:30 11.09227 122.59081 3975 ft 241 kts 203°
2026-04-16 04:30 11.07706 122.58418 3848 ft 240 kts 203°
2026-04-16 04:30 11.06152 122.57764 3731 ft 238 kts 202°
2026-04-16 04:31 11.04655 122.57177 3734 ft 227 kts 201°
2026-04-16 04:31 11.03207 122.56637 3474 ft 221 kts 200°
2026-04-16 04:31 11.01770 122.56113 3108 ft 218 kts 199°
2026-04-16 04:31 11.00385 122.55613 2958 ft 203 kts 198°
2026-04-16 04:32 10.99119 122.55155 2930 ft 183 kts 200°
2026-04-16 04:32 10.97949 122.54729 2926 ft 176 kts 200°
2026-04-16 04:32 10.96803 122.54308 2735 ft 175 kts 199°
2026-04-16 04:32 10.95669 122.53892 2509 ft 171 kts 198°
2026-04-16 04:33 10.94585 122.53494 2272 ft 164 kts 199°
2026-04-16 04:33 10.93500 122.53095 2056 ft 164 kts 198°
2026-04-16 04:33 10.92446 122.52707 1847 ft 162 kts 198°
2026-04-16 04:33 10.91386 122.52317 1637 ft 161 kts 197°
2026-04-16 04:34 10.90335 122.51931 1426 ft 161 kts 199°
2026-04-16 04:34 10.89282 122.51545 1220 ft 161 kts 199°
2026-04-16 04:34 10.88228 122.51149 1026 ft 160 kts 198°
2026-04-16 04:34 10.87188 122.50774 834 ft 159 kts 197°
2026-04-16 04:35 10.86155 122.50394 595 ft 157 kts 198°
2026-04-16 04:35 10.85119 122.50010 343 ft 158 kts 199°
2026-04-16 04:35 10.84092 122.49629 194 ft 156 kts 197°
2026-04-16 04:35 10.83146 122.49287 175 ft 126 kts 200°
2026-04-16 04:36 10.82486 122.49038 175 ft 76 kts 201°
2026-04-16 04:36 10.82169 122.48919 175 ft 20 kts 168°
2026-04-16 04:36 10.82155 122.48980 175 ft 11 kts 27°
2026-04-16 04:36 10.82190 122.48978 175 ft 3 kts 346°
2026-04-16 04:37 10.82273 122.48964 175 ft 13 kts
2026-04-16 04:37 10.82367 122.48990 175 ft 14 kts 19°
2026-04-16 04:37 10.82466 122.49026 175 ft 15 kts 20°
2026-04-16 04:37 10.82568 122.49065 175 ft 16 kts 21°
2026-04-16 04:38 10.82673 122.49107 175 ft 16 kts 21°
2026-04-16 04:38 10.82783 122.49147 175 ft 17 kts 16°
2026-04-16 04:38 10.82897 122.49187 175 ft 17 kts 20°
2026-04-16 04:38 10.83011 122.49231 175 ft 17 kts 20°
2026-04-16 04:39 10.83086 122.49309 175 ft 16 kts 107°
2026-04-16 04:39 10.83047 122.49425 175 ft 17 kts 108°
2026-04-16 04:39 10.83053 122.49532 175 ft 17 kts 38°
2026-04-16 04:39 10.83138 122.49567 175 ft 6 kts 32°
2026-04-16 04:40 10.83130 122.49609 175 ft 7 kts 117°
2026-04-16 04:40 10.83114 122.49648 175 ft 0 kts 110°